Find Starlink 32664

NORAD ID: 62204 Int'l Des: 2024-229 Owner: SPXS Country: US Constellation: starlink operational
LEOCIRCULAR

当前视图

正在加载3D地球...

About Starlink 32664

Starlink 32664 (NORAD 62204) is a starlink constellation satellite (v2 mini) launched Dec 4, 2024 by SPXS of US. It operates in LEO, CIRCULAR orbit with a mass of 730.00 kg.

即将过境

Passes for default location (London). Set your location on the main map for personalized predictions.

高度历史

Loading altitude history...

两行轨道根数

1 62204U 24229N 26263.91670139 .00056183 00000-0 27949-3 0 9995
2 62204 42.9836 196.1722 0028467 179.0478 113.8898 15.80461308 5996
Epoch: Sep 20, 2026 • Age: 6 hours

当前状态

高度 317.9 km
远地点 / 近地点 N/A
速度 7.73 km/s
星下点 -21.85°S, 15.94°W
发射日期 Dec 4, 2024
运行时间 1.7 years
类型 internet

技术详情

分类 Payload
质量 730.00 kg
干质量 700.00 kg
长度 0.30 m
跨度 29.00 m
形状 ? Box + pan
制造商 SPXS
平台类型 Starlink V2M
阶段状态 In Orbit
所有者/国家 SPXS/US

Most Searched